This is the latest recevied weather packets stored in our database for station/object HB9CJD-1. If no packets are shown the sender has not sent any weather packets the latest 10 day(s).
| Time | Temp. | Humidity | Pressure | Rain* | Wind** | Luminosity | Snow |
|---|---|---|---|---|---|---|---|
| 1777724291 | 25° C | 34% | 1022.4 hPa | - | - | - | - |
| 1777723688 | 23.89° C | 36% | 1022.4 hPa | - | - | - | - |
| 1777723688 | 23.89° C | 36% | 1022.4 hPa | - | - | - | - |
| 1777723085 | 23.89° C | 35% | 1022.7 hPa | - | - | - | - |
| 1777723085 | 23.89° C | 35% | 1022.7 hPa | - | - | - | - |
| 1777722481 | 23.33° C | 39% | 1022.7 hPa | - | - | - | - |
| 1777722481 | 23.33° C | 39% | 1022.7 hPa | - | - | - | - |
| 1777721878 | 23.33° C | 39% | 1022.8 hPa | - | - | - | - |
| 1777721878 | 23.33° C | 39% | 1022.8 hPa | - | - | - | - |
| 1777721275 | 22.78° C | 39% | 1023 hPa | - | - | - | - |
| 1777721275 | 22.78° C | 39% | 1023 hPa | - | - | - | - |
| 1777720672 | 23.33° C | 39% | 1023.2 hPa | - | - | - | - |
| 1777720672 | 23.33° C | 39% | 1023.2 hPa | - | - | - | - |
| 1777720068 | 23.33° C | 41% | 1023.3 hPa | - | - | - | - |
| 1777720068 | 23.33° C | 41% | 1023.3 hPa | - | - | - | - |
| 1777719465 | 22.78° C | 44% | 1023.5 hPa | - | - | - | - |
| 1777719465 | 22.78° C | 44% | 1023.5 hPa | - | - | - | - |
| 1777718862 | 22.22° C | 41% | 1023.7 hPa | - | - | - | - |
| 1777718862 | 22.22° C | 41% | 1023.7 hPa | - | - | - | - |
| 1777718259 | 22.22° C | 42% | 1023.7 hPa | - | - | - | - |
| 1777718259 | 22.22° C | 42% | 1023.7 hPa | - | - | - | - |
| 1777717656 | 21.67° C | 43% | 1023.9 hPa | - | - | - | - |
| 1777717655 | 21.67° C | 43% | 1023.9 hPa | - | - | - | - |
| 1777717052 | 21.11° C | 45% | 1024 hPa | - | - | - | - |
| 1777717052 | 21.11° C | 45% | 1024 hPa | - | - | - | - |
* Rain since midnight (hover to see other rain measurements)
** Current wind speed in m/s (hover to see current wind gust speed)